Russellville, AR

9:10 PM CDT on October 14, 2019 (GMT -0500)
Russellville Regional

Weather History for KRUE - August, 2019

Change the Weather History Date:

Tuesday, August 27, 2019

  Actual Average (WUND) Record (WUND)
Temperature  
Mean Temperature 78 °F -  
Max Temperature 87 °F - - (-1)
Min Temperature 69 °F - - (-1)
Cooling Degree Days 12    
Growing Degree Days 28 (Base 50)    
Moisture  
Dew Point 69 °F    
Average Humidity 84    
Maximum Humidity 93    
Minimum Humidity 57    
Precipitation  
Precipitation 1.58 in - - ()
Sea Level Pressure  
Sea Level Pressure 29.93 in    
Wind  
Wind Speed 5 mph (WNW)    
Max Wind Speed 21 mph    
Max Gust Speed 30 mph    
Visibility 8 miles    
Events Fog , Rain , Thunderstorm    
Averages and records for this station are not official NWS values.
T = Trace of Precipitation, MM = Missing Value Source: NWS Daily Summary

Daily Weather History Graph

Daily Weather History Graph

Search for Another Location

Airport or City:

Astronomy

Aug. 27, 2019 Rise Set
Actual Time 6:40 AM CDT 7:46 PM CDT
Civil Twilight 6:14 AM CDT 8:12 PM CDT
Nautical Twilight 5:43 AM CDT 8:43 PM CDT
Astronomical Twilight 5:11 AM CDT 9:15 PM CDT
Moon 3:14 AM CDT (8/27) 6:00 PM CDT (8/27)
Length of Visible Light 13h 57m
Length of Day
13h 05m
Waning Crescent, 11% of the Moon is Illuminated
Aug 27
Waning Crescent
Aug 30
New
Sep 5
First Quarter
Sep 13
Full
Sep 21
Last Quarter

Hourly Weather History & Observations

Time (CDT) Temp. Heat Index Dew Point Humidity Pressure Visibility Wind Dir Wind Speed Gust Speed Precip Events Conditions
12:53 AM 79.0 °F - 75.0 °F 88% 29.83 in 10.0 mi Calm Calm - N/A   Partly Cloudy
1:53 AM 75.0 °F - 66.9 °F 76% 29.84 in 10.0 mi North 13.8 mph - N/A Thunderstorm Overcast
2:24 AM 72.0 °F - 69.1 °F 91% 29.95 in 2.5 mi NW 12.7 mph 24.2 mph 0.14 in Rain , Thunderstorm Heavy Thunderstorms and Rain
2:28 AM 72.0 °F - 69.1 °F 91% 29.97 in 0.8 mi WNW 20.7 mph 29.9 mph 0.36 in Rain , Thunderstorm Heavy Thunderstorms and Rain
2:37 AM 71.1 °F - 68.0 °F 90% 29.93 in 0.5 mi West 12.7 mph 27.6 mph 0.82 in Fog , Rain , Thunderstorm Heavy Thunderstorms and Rain
2:45 AM 70.0 °F - 68.0 °F 93% 29.90 in 0.8 mi NW 4.6 mph 21.9 mph 1.06 in Rain , Thunderstorm Heavy Thunderstorms and Rain
2:53 AM 70.0 °F - 68.0 °F 93% 29.88 in 1.2 mi West 5.8 mph - 1.25 in Rain , Thunderstorm Heavy Thunderstorms and Rain
2:59 AM 70.0 °F - 68.0 °F 93% 29.91 in 2.0 mi SW 4.6 mph - 0.11 in Rain , Thunderstorm Heavy Thunderstorms and Rain
3:13 AM 70.0 °F - 68.0 °F 93% 29.92 in 4.0 mi SSW 4.6 mph - 0.18 in Rain , Thunderstorm Thunderstorms and Rain
3:53 AM 69.1 °F - 66.9 °F 93% 29.87 in 10.0 mi SSE 3.5 mph - 0.21 in Rain Light Rain
4:14 AM 69.1 °F - 66.9 °F 93% 29.89 in 7.0 mi South 4.6 mph - 0.03 in Rain , Thunderstorm Light Thunderstorms and Rain
4:29 AM 69.1 °F - 66.9 °F 93% 29.86 in 9.0 mi Calm Calm - 0.04 in Rain , Thunderstorm Light Rain
4:53 AM 69.1 °F - 66.9 °F 93% 29.84 in 10.0 mi South 5.8 mph - 0.07 in Rain , Thunderstorm Light Rain
5:11 AM 69.1 °F - 66.9 °F 93% 29.88 in 9.0 mi Calm Calm - 0.02 in Rain Light Rain
5:21 AM 70.0 °F - 66.9 °F 90% 29.89 in 10.0 mi NW 3.5 mph - 0.02 in Rain Light Rain
5:53 AM 70.0 °F - 66.9 °F 90% 29.88 in 10.0 mi NNW 3.5 mph - 0.04 in   Mostly Cloudy
6:33 AM 70.0 °F - 68.0 °F 93% 29.96 in 10.0 mi Calm Calm - N/A Thunderstorm Overcast
6:41 AM 70.0 °F - 68.0 °F 93% 29.96 in 10.0 mi SE 3.5 mph - N/A Thunderstorm Overcast
6:43 AM 70.0 °F - 68.0 °F 93% 29.96 in 10.0 mi SSE 3.5 mph - N/A   Overcast
6:53 AM 70.0 °F - 68.0 °F 93% 29.94 in 10.0 mi South 3.5 mph - 0.00 in Rain Light Rain
7:38 AM 70.0 °F - 68.0 °F 93% 29.95 in 10.0 mi Calm Calm - 0.01 in   Scattered Clouds
7:53 AM 70.0 °F - 68.0 °F 93% 29.93 in 10.0 mi Calm Calm - 0.01 in   Mostly Cloudy
8:04 AM 70.0 °F - 68.0 °F 93% 29.95 in 10.0 mi Calm Calm - N/A   Scattered Clouds
8:53 AM 72.0 °F - 69.1 °F 91% 29.93 in 10.0 mi Calm Calm - N/A   Partly Cloudy
9:53 AM 73.0 °F - 69.1 °F 87% 29.93 in 10.0 mi NNW 4.6 mph - N/A   Clear
10:04 AM 73.9 °F - 70.0 °F 87% 29.95 in 10.0 mi NNW 5.8 mph - N/A   Partly Cloudy
10:28 AM 75.0 °F - 70.0 °F 84% 29.95 in 10.0 mi NNW 6.9 mph - N/A   Mostly Cloudy
10:37 AM 75.0 °F - 70.0 °F 84% 29.95 in 10.0 mi NW 6.9 mph - N/A   Scattered Clouds
10:44 AM 75.0 °F - 70.0 °F 84% 29.95 in 10.0 mi NNW 5.8 mph - N/A   Mostly Cloudy
10:53 AM 75.0 °F - 69.1 °F 82% 29.94 in 10.0 mi NNW 4.6 mph - N/A   Scattered Clouds
11:53 AM 77.0 °F - 69.1 °F 76% 29.94 in 10.0 mi NW 6.9 mph - N/A   Mostly Cloudy
12:53 PM 81.0 °F 83.8 °F 68.0 °F 65% 29.94 in 10.0 mi WNW 11.5 mph - N/A   Scattered Clouds
1:53 PM 82.9 °F 87.0 °F 70.0 °F 65% 29.94 in 10.0 mi Variable 6.9 mph - N/A   Scattered Clouds
2:53 PM 84.0 °F 88.4 °F 70.0 °F 63% 29.93 in 10.0 mi Variable 5.8 mph - N/A   Clear
3:53 PM 86.0 °F 90.1 °F 69.1 °F 57% 29.92 in 10.0 mi West 9.2 mph - N/A   Clear
4:53 PM 86.0 °F 90.1 °F 69.1 °F 57% 29.92 in 10.0 mi WSW 3.5 mph - N/A   Clear
6:53 PM 84.9 °F 91.4 °F 73.0 °F 67% 29.92 in 10.0 mi North - - N/A   Overcast
7:53 PM 81.0 °F 84.9 °F 71.1 °F 72% 29.94 in 10.0 mi East 4.6 mph - N/A   Overcast
8:53 PM 80.1 °F 83.2 °F 70.0 °F 71% 29.96 in 10.0 mi Calm Calm - N/A   Scattered Clouds
9:53 PM 78.1 °F - 71.1 °F 79% 29.99 in 10.0 mi Calm Calm - N/A   Mostly Cloudy
10:53 PM 75.9 °F - 70.0 °F 82% 30.00 in 10.0 mi Calm Calm - N/A   Overcast
11:53 PM 73.9 °F - 68.0 °F 82% 30.01 in 10.0 mi Calm Calm - N/A   Clear